Regional Weather Roundup
Issued by NWS

Home | Current Version | Previous Version | Text Only | Print | Product List | Glossary Off
Versions: 1 2 3 4 5 6 7 8 9 10 11 12 13 14 15 16 17 18 19 20 21 22 23 24 25 26 27 28 29 30 31 32 33 34 35 36 37 38 39 40 41 42 43 44 45 46 47 48 49 50

000
ASUS45 KABQ 011901
RWRNM
NEW MEXICO REGIONAL WEATHER ROUNDUP
NATIONAL WEATHER SERVICE ALBUQUERQUE NM
100 PM MDT MON JUN 01 2015

NOTE: "FAIR" MEANS FEW OR NO CLOUDS BELOW 12,000 FEET AGL WITH NO
       SIGNIFICANT WEATHER OR OBSTRUCTIONS TO VISION.

      THIS PRODUCT IS RELEASED AS TWO VERSIONS.  ONE VERSION NEAR
      THE TOP OF THE HOUR CONTAINING PRELIMINARY DATA FROM ALBUQUERQUE
      AND OTHER STATIONS.  A FINAL VERSION WITH ADDITIONAL DATA IS
      ISSUED ABOUT 10 MINUTES AFTER THE HOUR.

NMZ501-503-504-510>518-012000-
NORTHWEST PLATEAU/NORTHCENTRAL MOUNTAINS

CITY           SKY/WX    TMP DP  RH WIND       PRES   REMARKS
FARMINGTON     SUNNY     84  34  16 E7        30.13F
SANTA FE       SUNNY     82  36  19 SW8       30.21F
TAOS           PTSUNNY   73  39  29 NE9G17    30.26F

$$
NMZ402-403-502-505>509-012000-
WESTCENTRAL MOUNTAINS/SOUTHWEST MOUNTAINS

CITY           SKY/WX    TMP DP  RH WIND       PRES   REMARKS
GALLUP         MOSUNNY   80  34  19 SW14      30.22F
GRANTS         CLOUDY    79  31  18 CALM      30.24F

$$
NMZ407-409-411-412-012000-
SOUTHERN DESERTS

CITY           SKY/WX    TMP DP  RH WIND       PRES   REMARKS
LORDSBURG      FAIR      91  37  15 W13G20    30.09F
DEMING         SUNNY     93  38  14 VRB7G18   30.09F
ALAMOGORDO     SUNNY     90  41  18 SW8       30.11F
T OR C         MOSUNNY   88  39  17 VRB5      30.12F

$$
NMZ519>523-012000-
CENTRAL VALLEYS/CENTRAL HIGHLANDS

CITY           SKY/WX    TMP DP  RH WIND       PRES   REMARKS
ALBUQUERQUE    MOSUNNY   83  37  19 CALM      30.16F
DOUBLE EAGLE   MOSUNNY   84  39  20 W7        30.20F
MORIARTY ARPT  FAIR      85  37  18 W7        30.21F
CLINES CORNERS SUNNY     81  36  19 NW16G23   30.25F
BELEN          FAIR      87  32  13 SW3       30.14F
SOCORRO        NOT AVBL

$$
NMZ524>526-539-540-012000-
SOUTHCENTRAL MOUNTAINS

CITY           SKY/WX    TMP DP  RH WIND       PRES   REMARKS
RUIDOSO        NOT AVBL

$$
NMZ527>531-012000-
NORTHEAST HIGHLANDS/NORTHEAST PLAINS

CITY           SKY/WX    TMP DP  RH WIND       PRES   REMARKS
LAS VEGAS      TSTM      62  42  47 E16       30.24R
RATON          MOSUNNY   76  45  33 S6        30.16F
CLAYTON        SUNNY     82  54  37 S9        30.11F

$$
NMZ532>537-012000-
EASTCENTRAL PLAINS

CITY           SKY/WX    TMP DP  RH WIND       PRES   REMARKS
TUCUMCARI      SUNNY     84  56  38 SE6       30.05F
CANNON AFB     NOT AVBL
CLOVIS AIRPORT SUNNY     82  55  39 SW12        N/A

$$
NMZ028-029-538-012000-
SOUTHEAST PLAINS

CITY           SKY/WX    TMP DP  RH WIND       PRES   REMARKS
ROSWELL        SUNNY     89  54  30 SE9       30.04F
ARTESIA        SUNNY     90  54  29 S9G17     30.04F
CARLSBAD       SUNNY     91  57  31 SE14G21   30.02F
HOBBS          SUNNY     86  50  28 S15G21    30.09F


$$


USA.gov is the U.S. government's official web portal to all federal, state and local government web resources and services.